Flag for Brazil Weather past 2 weeks in Porto Alegre, Rio Grande do Sul, Brazil

Now
66 °F

Sunny.


Feels Like: 66 °F
Forecast: 58 / 72 °F
Wind: 6 mph from West

Location: Porto Alegre Aero-Porto

Current Time: Oct 20, 2014 at 9:22:49 AM

Latest Report: Oct 20, 2014 at 9:00 AM


Visibility: 10 mi

Pressure: 30.09 "Hg

Humidity: 68%

Dew point: 55 °F

Location of Porto AlegreLocation

Historic Weather in Porto Alegre — Graph

°F

Porto Alegre temperature yesterday

Maximum temperature yesterday: 75 °F (at 5:00 PM)
Minimum temperature yesterday: 66 °F (at 8:00 AM)
Average temperature yesterday: 69 °F

Past Weeks' High & Low Weather Summary

 TemperatureHumidityPressure
High86 °F (Oct 8, 2:00 PM)100% (Oct 12, 3:00 AM)30.21 "Hg (Oct 12, 3:00 AM)
Low32 °F (Oct 16, 2:00 PM)28% (Oct 19, 5:00 AM)29.65 "Hg (Oct 19, 4:00 AM)
Average69 °F79%29.95 "Hg
* Reported Oct 5 7:00 AM — Oct 20 8:00 AM, Porto Alegre, Weather by CustomWeather, © 2014

Note: Actual official high and low records may vary slightly from our data, if they occured in-between our weather recording intervals... More about our weather records

Advertising

Porto Alegre weather history for previous 24 hours

 ConditionsComfort  
Time TempWeatherWind HumidityBarometerVisibility
8:00 AM
Oct 20
63 °FSunny.3 mph88%30.09 "Hg10 mi
7:00 AM59 °FSunny.3 mph94%30.07 "Hg10 mi
6:00 AM59 °FClear.3 mph94%30.04 "Hg10 mi
5:00 AM61 °FClear.5 mph94%30.04 "Hg10 mi
4:00 AM61 °FClear.2 mph94%30.01 "Hg10 mi
3:00 AM63 °FClear.2 mph88%30.04 "Hg10 mi
1:00 AM64 °FClear.6 mph88%30.01 "Hg10 mi
12:00 AM66 °FClear.6 mph78%30.01 "Hg10 mi
11:00 PM
Oct 19
66 °FClear.7 mph68%30.01 "Hg10 mi
10:00 PM68 °FPassing clouds.5 mph73%30.01 "HgN/A
9:00 PM70 °FPassing clouds.2 mph88%29.98 "HgN/A
8:00 PM70 °FPartly cloudy.5 mph88%29.92 "HgN/A
7:00 PM70 °FBroken clouds.6 mph88%29.89 "Hg5 mi
6:08 PM72 °FLight rain. Fog.7 mph88%29.89 "Hg2 mi
6:00 PM73 °FBroken clouds.10 mph83%29.89 "Hg6 mi
5:00 PM75 °FPartly sunny.5 mph74%29.83 "HgN/A
4:00 PM72 °FBroken clouds.12 mph83%29.89 "HgN/A
3:00 PM72 °FCloudy.17 mph83%29.92 "HgN/A
2:00 PM70 °FBroken clouds.9 mph88%29.83 "HgN/A
1:00 PM70 °FBroken clouds.15 mph88%29.89 "HgN/A
12:00 PM68 °FBroken clouds.7 mph94%29.89 "HgN/A
11:00 AM68 °FPartly sunny.5 mph88%29.83 "HgN/A
10:00 AM68 °FMostly cloudy.12 mph94%29.83 "Hg4 mi
9:00 AM68 °FMostly cloudy.9 mph88%29.80 "Hg4 mi
Weather by CustomWeather, © 2014

See weather overviewHow to use our weather pages